Meteorología


Vista de vientos por altitud

Escuchar ATIS SAEZ

Salida y Puesta del sol

Servicio Meteorológico Nacional
Windy
NOAA Aviation Wheather Center
Ogimet Gramet
WindGuru
Weather Underground

Decodificadores de información

METAR EZEIZA:

SAEZ 162300Z 06009KT CAVOK 32/21 Q1003 NOSIG